Regional Weather Roundup
Issued by NWS

Home | Current Version | Previous Version | Graphics & Text | Print | Product List | Glossary On
Versions: 1 2 3 4 5 6 7 8 9 10 11 12 13 14 15 16 17 18 19 20 21 22 23 24 25 26 27 28 29 30 31 32 33 34 35 36 37 38 39 40 41 42 43 44 45 46 47 48 49 50
000
ASUS43 KMKX 280800
RWRWI

WISCONSIN REGIONAL WEATHER ROUNDUP
NATIONAL WEATHER SERVICE MILWAUKEE/SULLIVAN WI
300 AM CDT FRI AUG 28 2015

NOTE: "FAIR" INDICATES FEW OR NO CLOUDS BELOW 12,000 FEET WITH NO
SIGNIFICANT WEATHER AND/OR OBSTRUCTIONS TO VISIBILITY.

WIZ001-002-006>008-014>016-023>028-280900-
NORTHWEST WISCONSIN

CITY           SKY/WX    TMP DP  RH WIND       PRES   REMARKS
SUPERIOR ARPT  MOCLDY    51  50  96 CALM      29.97F
ASHLAND        CLOUDY    62  60  93 S6        29.99S
HAYWARD        MOCLDY    61  58  90 S5        30.01F
SIREN          PTCLDY    64  58  79 S8        30.00S
CUMBERLAND     PTCLDY    55  54  94 S6        30.02F
RICE LAKE      PTCLDY    57  54  92 SE3       30.04S
CHETEK         PTCLDY   N/A N/A N/A SE5       30.03S
LADYSMITH      PTCLDY    61  58  91 S5        30.05F
EAU CLAIRE     NOT AVBL
MENOMONIE      MOCLDY    60  59  96 SE3       30.04R
NEW RICHMOND   MOCLDY    61  59  92 S6        30.02S
OSCEOLA        PTCLDY    61  61 100 SE3       30.03F
$$

WIZ003>005-009-010-017-018-280900-
NORTH CENTRAL WISCONSIN

CITY           SKY/WX    TMP DP  RH WIND       PRES   REMARKS
MANITOWISH WTR MOCLDY    58  58  99 S3        30.04S
ARBOR VITAE    MOCLDY    62  59  91 S7        30.05S
WOODRUFF       MOCLDY    62  59  91 S7        30.05S
RHINELANDER    CLOUDY    61  57  87 SW10      30.08R
EAGLE RIVER    PTCLDY    57  56  95 CALM      30.06R
LAND O LAKES   CLEAR     56  54  95 CALM      30.06S
PHILLIPS       CLOUDY    60  58  92 S3        30.04S
TOMAHAWK       CLOUDY    58  57  97 CALM      30.07R
MEDFORD        CLOUDY    60  58  92 S7        30.06F
MERRILL        MOCLDY    55  55 100 CALM      30.07F
$$

WIZ029-030-035-036-043>047-280900-
CENTRAL WISCONSIN

CITY           SKY/WX    TMP DP  RH WIND       PRES   REMARKS
WAUSAU         PTCLDY    62  58  86 SW3       30.06S
MOSINEE        MOCLDY    59  57  94 S5        30.09S
MARSHFIELD     MOCLDY    59  55  87 S5        30.07F
STEVENS POINT  MOCLDY    58  56  90 S5        30.09S
WAUPACA        MOCLDY    61  59  94 S5        30.10R
WAUTOMA        NOT AVBL
WISC RAPIDS    MOCLDY    61  56  83 S6        30.09S
CAMP DOUGLAS   NOT AVBL
$$

WIZ011>013-019>022-031-037>040-048>050-280900-
NORTHEAST WISCONSIN

CITY           SKY/WX    TMP DP  RH WIND       PRES   REMARKS
ANTIGO         MOCLDY    56  56  98 SW5       30.09R
SHAWANO        CLEAR     60  57  88 CALM      30.09R
OCONTO         PTCLDY    58  58 100 SW3       30.07S
STURGEON BAY   PTCLDY    57  52  82 S9        30.11R
GREEN BAY      MOCLDY    58  55  90 S6        30.09S
MANITOWOC      NOT AVBL
APPLETON       MOCLDY    61  55  82 S7        30.08S
CLINTONVILLE   PTCLDY    59  55  88 CALM      30.09R
OSHKOSH        MOCLDY    59  54  83 S8        30.09S
$$

WIZ032>034-041-042-053>061-280900-
SOUTHWEST WISCONSIN

CITY           SKY/WX    TMP DP  RH WIND       PRES   REMARKS
LA CROSSE      CLOUDY    65  60  84 S6        30.06R
SPARTA         CLOUDY    56  55  93 CALM      30.07S
VIROQUA        CLOUDY    62  60  94 S6        30.08R
BOSCOBEL       CLOUDY    59  57  93 CALM      30.08S
PRAIRIE DU CHI CLOUDY    64  58  82 E3        30.07S
PLATTEVILLE    CLOUDY    62  59  92 SE5       30.10R
$$

WIZ056-057-062-063-064-067-068-280900-
SOUTH CENTRAL WISCONSIN

CITY           SKY/WX    TMP DP  RH WIND       PRES   REMARKS
REEDSBURG      PTCLDY    58  57  94 CALM      30.08F
BARABOO/DELLS  PTCLDY    59  55  88 S6        30.09S
LONE ROCK      NOT AVBL
MINERAL POINT  CLOUDY    61  59  94 SE5       30.10R
MADISON        PTCLDY    60  55  83 S6        30.10S
MIDDLETON      PTCLDY    60  55  84 CALM      30.10S
WATERTOWN      PTCLDY    54  54 100 CALM      30.10F
MONROE         MOCLDY    59  55  88 SE6       30.10S
JANESVILLE     PTCLDY    55  54  94 SE5       30.10F
$$

WIZ051-052-058>065-066-070>072-280900-
SOUTHEAST WISCONSIN

CITY           SKY/WX    TMP DP  RH WIND       PRES   REMARKS
MILWAUKEE      MOCLDY    57  53  86 S5        30.13R
WAUKESHA       PTCLDY    55  52  88 S5        30.13S
MILWAUKEE/TIMM CLOUDY    59  52  77 S5        30.12F
RACINE         MOCLDY    59  55  87 S5        30.14S
BURLINGTON     PTCLDY    50  50  99 CALM      30.12F FOG
KENOSHA        CLOUDY    56  54  93 S3        30.12F
FOND DU LAC    MOCLDY    56  53  90 S5        30.10S
SHEBOYGAN      CLOUDY    56  53  90 S3        30.11S
WEST BEND      CLOUDY    55  52  88 CALM      30.11S
JUNEAU         PTCLDY    56  51  85 CALM      30.12S
$$

LSZ147-162-280900-
LAKE SUPERIOR

STATION/POSITION TIME  TEMP    WIND        PRES    WAVE
                       AIR SEA DIR/SP/G            HT/PER
                 (UTC) (F)     (DEG/KT/KT) (MB)    (FT/S)
W MID LAKE BUOY  0650   58 55  200/  8/  8 1014.8F   0
DEVILS ISLAND    0700   64     190/  7/  8 1014.8F
PORT WING        0740   59      CALM  /  2 1015.2F
SAXON HARBOR     0700   65     180/  3/  7 1014.9F
$$

LMZ867-665-643>646-280900-
LAKE MICHIGAN

STATION/POSITION TIME  TEMP    WIND        PRES    WAVE
                       AIR SEA DIR/SP/G            HT/PER
                 (UTC) (F)     (DEG/KT/KT) (MB)    (FT/S)
CHAMBERS ISLAND  0700   61     170/  4/  9 1018.3S
S GREEN BAY BUOY 0730   63     190/ 14/ 16 1019.6F
N MID LAKE BUOY  0650   63 64  210/ 16/ 17 1018.2F   3/ 4
NORTHPORT PIER   0700   62     170/  4/ 10 1018.3S
SISTER BAY       0719   61     180/ 12/ 15   N/A
ALGOMA LAKESHORE 0714          220/  3/  6   N/A
KEWAUNEE LAKESHO 0700   61     210/  8/ 11 1018.3S
SHEBOYGAN LAKESH 0700   59     200/  8/  9 1019.8F
PORT WASHINGTON  0700   56     250/  1/  2 1020.7F
ATWATER BUOY     0700   54 47  180/  6/  6 1021.3F
MILWAUKEE LAKESH 0700   59     210/  2/  3   N/A
S MID LAKE BUOY  0650   66 68  150/  8/ 10 1020.2F   1
KENOSHA   LAKESH 0700   62     190/  5/  7 1019.6F
$$

TC  - TEMPERATURE IN CELSIUS
VSB - VISIBILITY IN STATUTE MILES
WCI - WIND CHILL INDEX
HX  - HEAT INDEX



USA.gov is the U.S. government's official web portal to all federal, state and local government web resources and services.